User: anonymous   Login
Location: Unspecified
(0.0000°N, 0.0000°E)
Time: 06:50:35
(UTC+00:00)
Language:

Amsat-Oscar-8 - Orbit

View from above orbital plane
View from above orbital plane
View from above satellite
View from above satellite

Ground track
Ground track

The orbit data is extracted from the following two-line orbital elements,

1 10703U 78026B   17087.91362431 +.00000333 +00000-0 +25912-3 0  9997
2 10703 098.8780 052.9386 0005918 181.6691 241.2951 13.99222277993145
Epoch (UTC): 28 March 2017 21:55:37
Eccentricity: 0.0005918
inclination: 98.8780°
perigee height: 892 km
apogee height: 901 km
right ascension of ascending node: 52.9386°
argument of perigee: 181.6691°
revolutions per day: 13.99222277
mean anomaly at epoch: 241.2951°
orbit number at epoch: 99314

The dashed part of the orbit path shows where the satellite is in the earth's shadow,  

DLR